Regional Weather Roundup
Issued by NWS Nashville, TN

Home | Current Version | Previous Version | Text Only | Print | Product List | Glossary On
Versions: 1 2 3 4 5 6 7 8 9 10 11 12 13 14 15 16 17 18 19 20 21 22 23 24 25 26 27 28 29 30 31 32 33 34 35 36 37 38 39 40 41 42 43 44 45 46 47 48 49 50
000
ASUS44 KOHX 070715
RWROHX
MIDDLE TENNESSEE HOURLY WEATHER ROUNDUP
NATIONAL WEATHER SERVICE NASHVILLE TN
200 AM CDT THU MAY 07 2015

NOTE: "FAIR" INDICATES FEW OR NO CLOUDS BELOW 12,000 FEET WITH
NO SIGNIFICANT WEATHER AND/OR OBSTRUCTIONS TO VISIBILITY.

* THESE REPORTS ARE NOT UNDER NWS QUALITY CONTROL AND MAY NOT
  REPORT WEATHER SUCH AS PRECIPITATION AND FOG.


TNZ005>011-023>034-057-059-062>066-078-080-070800
...NORTHERN MIDDLE TENNESSEE...

CITY           SKY/WX    TMP DP  RH WIND       PRES   REMARKS
CLARKSVILLE    CLEAR     61  58  90 CALM      30.09S
CROSSVILLE     MOCLDY    63  53  70 CALM      30.16S HAZE
NASHVILLE      CLEAR     62  57  83 S3        30.10F
PORTLAND       CLEAR     61  57  88 S5        30.10S
ROCKWOOD       CLOUDY    65  56  72 W3        30.14S
SMYRNA         CLEAR     59  57  92 CALM      30.10F
SPARTA         PTCLDY    57  57 100 CALM      30.12R
$$
TNZ056-058-060-061-075>077-079-093>097-070800
...SOUTHERN MIDDLE TENNESSEE...

CITY           SKY/WX    TMP DP  RH WIND       PRES   REMARKS
COLUMBIA       CLEAR     55  54  94 CALM      30.09S
LEWISBURG      CLEAR     53  50  90 CALM      30.10
MCMINNVILLE    PTCLDY    57  57 100 CALM      30.12F
SHELBYVILLE    CLEAR     57  55  94 CALM      30.11F
TULLAHOMA      CLEAR     54  50  87 CALM      30.12F
WINCHESTER     CLEAR     54  52  94 CALM      30.12F
$$


...KEY TO REMARKS...
VSB - VISIBILITY IN MILES
WCI - WIND CHILL INDEX
HX  - HEAT INDEX



USA.gov is the U.S. government's official web portal to all federal, state and local government web resources and services.